| time (UTC) | temp F | wind direction | speed MPH | gust MPH | rain 1hr in | rain 24hr in | rain mn in | humidity % | barometer mb |
| 20260506182551 | 58 | 323 | 2.0 | 8.0 | 0.01 | 0.15 | 0.15 | 96 | 1007.3 |
| 20260506182051 | 59 | 300 | 2.0 | 9.0 | 0.01 | 0.15 | 0.15 | 96 | 1007.3 |
| 20260506181618 | 59 | 175 | 2.0 | 9.0 | 0.01 | 0.15 | 0.15 | 96 | 1007.3 |
| 20260506181051 | 59 | 238 | 3.0 | 9.0 | 0.01 | 0.15 | 0.15 | 96 | 1007.3 |
| 20260506180551 | 59 | 219 | 2.0 | 10.0 | 0.01 | 0.15 | 0.15 | 96 | 1007.3 |
| 20260506180050 | 59 | 205 | 4.0 | 10.0 | 0.00 | 0.14 | 0.14 | 96 | 1007.2 |
| 20260506175550 | 59 | 217 | 3.0 | 10.0 | 0.01 | 0.14 | 0.14 | 96 | 1007.4 |
| 20260506175051 | 59 | 212 | 2.0 | 11.0 | 0.01 | 0.14 | 0.14 | 96 | 1007.5 |
| 20260506174549 | 59 | 202 | 2.0 | 11.0 | 0.02 | 0.14 | 0.14 | 96 | 1007.5 |
| 20260506174048 | 59 | 180 | 4.0 | 8.0 | 0.02 | 0.14 | 0.14 | 96 | 1007.6 |
| 20260506173548 | 59 | 182 | 3.0 | 9.0 | 0.03 | 0.14 | 0.14 | 96 | 1007.5 |
| 20260506173057 | 59 | 279 | 3.0 | 9.0 | 0.03 | 0.14 | 0.14 | 95 | 1007.7 |
| 20260506172547 | 59 | 213 | 2.0 | 7.0 | 0.04 | 0.14 | 0.14 | 96 | 1007.7 |
| 20260506172049 | 58 | 183 | 2.0 | 10.0 | 0.04 | 0.14 | 0.14 | 96 | 1007.7 |
| 20260506171547 | 59 | 158 | 2.0 | 10.0 | 0.05 | 0.14 | 0.14 | 96 | 1007.7 |
| 20260506171046 | 59 | 277 | 2.0 | 7.0 | 0.06 | 0.14 | 0.14 | 96 | 1007.7 |
| 20260506170546 | 59 | 153 | 1.0 | 6.0 | 0.06 | 0.14 | 0.14 | 96 | 1007.8 |
| 20260506170048 | 59 | 252 | 2.0 | 6.0 | 0.07 | 0.14 | 0.14 | 96 | 1007.8 |
| 20260506165545 | 59 | 210 | 2.0 | 9.0 | 0.07 | 0.13 | 0.13 | 96 | 1007.8 |
| 20260506165045 | 58 | 188 | 3.0 | 9.0 | 0.08 | 0.13 | 0.13 | 96 | 1007.7 |
| 20260506164547 | 59 | 273 | 2.0 | 12.0 | 0.07 | 0.12 | 0.12 | 96 | 1007.6 |
| 20260506164044 | 59 | 256 | 3.0 | 12.0 | 0.08 | 0.12 | 0.12 | 96 | 1007.5 |
| 20260506163544 | 59 | 59 | 5.0 | 11.0 | 0.07 | 0.11 | 0.11 | 96 | 1007.7 |
| 20260506163044 | 59 | 128 | 1.0 | 6.0 | 0.07 | 0.11 | 0.11 | 96 | 1007.8 |
| 20260506162541 | 59 | 330 | 1.0 | 7.0 | 0.06 | 0.10 | 0.10 | 96 | 1008.1 |
| 20260506162041 | 59 | 163 | 3.0 | 10.0 | 0.07 | 0.10 | 0.10 | 96 | 1008.2 |
| 20260506161539 | 59 | 67 | 2.0 | 10.0 | 0.06 | 0.09 | 0.09 | 96 | 1008.4 |
| 20260506161039 | 59 | 249 | 2.0 | 9.0 | 0.06 | 0.08 | 0.08 | 96 | 1008.6 |
| 20260506160539 | 59 | 5 | 2.0 | 7.0 | 0.06 | 0.08 | 0.08 | 96 | 1008.8 |
| 20260506160041 | 59 | 276 | 2.0 | 5.0 | 0.05 | 0.07 | 0.07 | 97 | 1008.8 |
| 20260506155540 | 59 | 92 | 1.0 | 6.0 | 0.04 | 0.06 | 0.06 | 97 | 1008.8 |
| 20260506155037 | 59 | 249 | 1.0 | 8.0 | 0.04 | 0.05 | 0.05 | 97 | 1008.9 |
| 20260506154538 | 59 | 250 | 3.0 | 10.0 | 0.04 | 0.05 | 0.05 | 97 | 1009.0 |
| 20260506154035 | 59 | 301 | 2.0 | 10.0 | 0.04 | 0.04 | 0.04 | 97 | 1009.0 |
| 20260506153534 | 60 | 246 | 1.0 | 9.0 | 0.04 | 0.04 | 0.04 | 97 | 1009.1 |
| 20260506153054 | 60 | 209 | 1.0 | 9.0 | 0.04 | 0.04 | 0.04 | 97 | 1008.8 |
| 20260506152533 | 60 | 236 | 1.0 | 7.0 | 0.04 | 0.04 | 0.04 | 97 | 1008.9 |
| 20260506152032 | 60 | 296 | 2.0 | 7.0 | 0.03 | 0.03 | 0.03 | 97 | 1008.8 |
| 20260506151534 | 60 | 138 | 1.0 | 9.0 | 0.03 | 0.03 | 0.03 | 96 | 1008.8 |
| 20260506151038 | 60 | 180 | 2.0 | 6.0 | 0.02 | 0.02 | 0.02 | 96 | 1008.7 |
| 20260506150531 | 60 | 142 | 2.0 | 6.0 | 0.02 | 0.02 | 0.02 | 95 | 1008.8 |
| 20260506150033 | 61 | 238 | 1.0 | 6.0 | 0.02 | 0.02 | 0.02 | 95 | 1008.7 |
| 20260506145529 | 61 | 90 | 1.0 | 8.0 | 0.02 | 0.02 | 0.02 | 94 | 1008.7 |
| 20260506145029 | 61 | 193 | 1.0 | 8.0 | 0.01 | 0.01 | 0.01 | 93 | 1008.8 |
| 20260506144528 | 62 | 194 | 3.0 | 9.0 | 0.01 | 0.01 | 0.01 | 91 | 1009.0 |
| 20260506144027 | 62 | 219 | 3.0 | 9.0 | 0.00 | 0.00 | 0.00 | 89 | 1009.1 |
| 20260506143527 | 63 | 275 | 3.0 | 9.0 | 0.00 | 0.00 | 0.00 | 88 | 1009.0 |
| 20260506143031 | 63 | 94 | 2.0 | 10.0 | 0.00 | 0.00 | 0.00 | 88 | 1009.0 |
| 20260506142526 | 63 | 250 | 1.0 | 10.0 | 0.00 | 0.00 | 0.00 | 88 | 1008.9 |
| 20260506142026 | 63 | 199 | 2.0 | 8.0 | 0.00 | 0.00 | 0.00 | 88 | 1008.9 |
| 20260506141526 | 63 | 196 | 2.0 | 12.0 | 0.00 | 0.00 | 0.00 | 88 | 1008.9 |
| 20260506141027 | 63 | 226 | 2.0 | 12.0 | 0.00 | 0.00 | 0.00 | 88 | 1008.9 |
| 20260506140526 | 63 | 261 | 4.0 | 10.0 | 0.00 | 0.00 | 0.00 | 88 | 1008.9 |
| 20260506140026 | 62 | 240 | 1.0 | 9.0 | 0.00 | 0.00 | 0.00 | 88 | 1008.7 |
| 20260506135526 | 62 | 233 | 3.0 | 9.0 | 0.00 | 0.00 | 0.00 | 88 | 1008.8 |
| 20260506135026 | 62 | 86 | 1.0 | 9.0 | 0.00 | 0.00 | 0.00 | 88 | 1008.8 |
| 20260506134525 | 62 | 195 | 4.0 | 10.0 | 0.00 | 0.00 | 0.00 | 88 | 1008.9 |
| 20260506134025 | 62 | 99 | 3.0 | 8.0 | 0.00 | 0.00 | 0.00 | 88 | 1008.8 |
| 20260506133524 | 62 | 274 | 2.0 | 11.0 | 0.00 | 0.00 | 0.00 | 88 | 1008.9 |
| 20260506133024 | 62 | 232 | 4.0 | 11.0 | 0.00 | 0.00 | 0.00 | 88 | 1008.9 |
| 20260506132524 | 62 | 222 | 3.0 | 7.0 | 0.00 | 0.00 | 0.00 | 88 | 1009.0 |
| 20260506132024 | 62 | 192 | 2.0 | 10.0 | 0.00 | 0.00 | 0.00 | 89 | 1009.1 |
| 20260506131533 | 62 | 208 | 4.0 | 10.0 | 0.00 | 0.00 | 0.00 | 88 | 1009.2 |
| 20260506131024 | 62 | 232 | 3.0 | 10.0 | 0.00 | 0.00 | 0.00 | 88 | 1009.2 |
| 20260506130523 | 62 | 186 | 4.0 | 14.0 | 0.00 | 0.00 | 0.00 | 88 | 1009.2 |
| 20260506130024 | 62 | 238 | 4.0 | 14.0 | 0.00 | 0.00 | 0.00 | 88 | 1009.0 |
| 20260506125523 | 62 | 244 | 3.0 | 11.0 | 0.00 | 0.00 | 0.00 | 88 | 1009.1 |
| 20260506125023 | 62 | 133 | 2.0 | 9.0 | 0.00 | 0.00 | 0.00 | 88 | 1009.4 |
| 20260506124523 | 62 | 75 | 4.0 | 10.0 | 0.00 | 0.00 | 0.00 | 88 | 1009.2 |
| 20260506124023 | 62 | 232 | 2.0 | 10.0 | 0.00 | 0.00 | 0.00 | 88 | 1008.9 |
| 20260506123526 | 62 | 234 | 5.0 | 10.0 | 0.00 | 0.00 | 0.00 | 88 | 1008.7 |
| 20260506123023 | 62 | 101 | 3.0 | 10.0 | 0.00 | 0.00 | 0.00 | 88 | 1008.9 |
| 20260506122523 | 62 | 161 | 3.0 | 10.0 | 0.00 | 0.00 | 0.00 | 88 | 1008.9 |
| 20260506122024 | 62 | 156 | 2.0 | 7.0 | 0.00 | 0.00 | 0.00 | 88 | 1008.8 |
| 20260506121522 | 62 | 242 | 3.0 | 10.0 | 0.00 | 0.00 | 0.00 | 88 | 1009.0 |
| 20260506121022 | 62 | 263 | 3.0 | 13.0 | 0.00 | 0.00 | 0.00 | 88 | 1009.1 |
| 20260506120522 | 62 | 187 | 2.0 | 9.0 | 0.00 | 0.00 | 0.00 | 88 | 1009.1 |
| 20260506120022 | 62 | 74 | 2.0 | 10.0 | 0.00 | 0.00 | 0.00 | 89 | 1009.0 |
| 20260506115523 | 62 | 182 | 2.0 | 10.0 | 0.00 | 0.00 | 0.00 | 88 | 1009.0 |
| 20260506115021 | 62 | 88 | 4.0 | 9.0 | 0.00 | 0.00 | 0.00 | 89 | 1009.0 |
| 20260506114527 | 62 | 229 | 3.0 | 9.0 | 0.00 | 0.00 | 0.00 | 89 | 1009.0 |
| 20260506114021 | 62 | 230 | 3.0 | 8.0 | 0.00 | 0.00 | 0.00 | 89 | 1009.1 |
| 20260506113520 | 62 | 125 | 4.0 | 9.0 | 0.00 | 0.00 | 0.00 | 89 | 1009.3 |
| 20260506113033 | 62 | 234 | 3.0 | 9.0 | 0.00 | 0.00 | 0.00 | 89 | 1009.2 |
| 20260506112519 | 62 | 175 | 1.0 | 9.0 | 0.00 | 0.00 | 0.00 | 89 | 1009.2 |
| 20260506112019 | 62 | 233 | 2.0 | 9.0 | 0.00 | 0.00 | 0.00 | 89 | 1009.1 |
| 20260506111519 | 62 | 241 | 1.0 | 7.0 | 0.00 | 0.00 | 0.00 | 89 | 1009.0 |
| 20260506111019 | 62 | 113 | 3.0 | 7.0 | 0.00 | 0.00 | 0.00 | 89 | 1009.1 |
| 20260506110519 | 62 | 207 | 2.0 | 6.0 | 0.00 | 0.00 | 0.00 | 89 | 1009.1 |
| 20260506110019 | 62 | 132 | 3.0 | 8.0 | 0.00 | 0.00 | 0.00 | 90 | 1009.0 |
| 20260506105519 | 61 | 201 | 4.0 | 8.0 | 0.00 | 0.00 | 0.00 | 90 | 1009.0 |
| 20260506105019 | 61 | 219 | 2.0 | 11.0 | 0.00 | 0.00 | 0.00 | 90 | 1008.8 |
| 20260506104519 | 61 | 319 | 4.0 | 11.0 | 0.00 | 0.00 | 0.00 | 90 | 1008.7 |
| 20260506104018 | 61 | 42 | 3.0 | 9.0 | 0.00 | 0.00 | 0.00 | 90 | 1008.8 |
| 20260506103517 | 61 | 74 | 2.0 | 9.0 | 0.00 | 0.00 | 0.00 | 90 | 1008.7 |
| 20260506103017 | 61 | 65 | 3.0 | 9.0 | 0.00 | 0.00 | 0.00 | 90 | 1008.7 |
| 20260506102516 | 61 | 209 | 1.0 | 8.0 | 0.00 | 0.00 | 0.00 | 90 | 1008.8 |
| 20260506102017 | 61 | 214 | 3.0 | 9.0 | 0.00 | 0.00 | 0.00 | 90 | 1008.7 |
| 20260506101516 | 61 | 158 | 2.0 | 9.0 | 0.00 | 0.00 | 0.00 | 90 | 1008.7 |
| 20260506101016 | 61 | 76 | 1.0 | 5.0 | 0.00 | 0.00 | 0.00 | 90 | 1008.8 |
| 20260506100515 | 61 | 257 | 1.0 | 6.0 | 0.00 | 0.00 | 0.00 | 90 | 1008.8 |
| 20260506100015 | 61 | 168 | 2.0 | 8.0 | 0.00 | 0.00 | 0.00 | 90 | 1008.7 |
| 20260506095515 | 61 | 209 | 3.0 | 9.0 | 0.00 | 0.01 | 0.00 | 90 | 1008.6 |
| 20260506095015 | 61 | 137 | 2.0 | 9.0 | 0.00 | 0.01 | 0.00 | 90 | 1008.6 |
| 20260506094514 | 61 | 189 | 4.0 | 9.0 | 0.00 | 0.01 | 0.00 | 90 | 1008.6 |
| 20260506094014 | 61 | 159 | 2.0 | 7.0 | 0.00 | 0.01 | 0.00 | 90 | 1008.7 |
| 20260506093514 | 61 | 338 | 1.0 | 4.0 | 0.00 | 0.01 | 0.00 | 90 | 1008.6 |
| 20260506093014 | 62 | 96 | 1.0 | 7.0 | 0.00 | 0.01 | 0.00 | 90 | 1008.6 |
| 20260506092515 | 62 | 96 | 3.0 | 8.0 | 0.00 | 0.01 | 0.00 | 90 | 1008.6 |
| 20260506092013 | 62 | 83 | 2.0 | 8.0 | 0.00 | 0.01 | 0.00 | 89 | 1008.6 |
| 20260506091513 | 62 | 187 | 3.0 | 12.0 | 0.00 | 0.01 | 0.00 | 90 | 1008.7 |
| 20260506091012 | 61 | 273 | 2.0 | 8.0 | 0.00 | 0.01 | 0.00 | 90 | 1008.8 |
| 20260506090511 | 62 | 209 | 2.0 | 9.0 | 0.00 | 0.01 | 0.00 | 90 | 1008.7 |
| 20260506090015 | 61 | 59 | 3.0 | 9.0 | 0.00 | 0.01 | 0.00 | 90 | 1008.8 |
| 20260506085510 | 61 | 349 | 2.0 | 9.0 | 0.00 | 0.01 | 0.00 | 90 | 1008.9 |
| 20260506085011 | 61 | 213 | 2.0 | 7.0 | 0.00 | 0.01 | 0.00 | 90 | 1008.9 |
| 20260506084510 | 61 | 259 | 2.0 | 7.0 | 0.00 | 0.01 | 0.00 | 90 | 1008.9 |
| 20260506084012 | 61 | 284 | 1.0 | 8.0 | 0.00 | 0.01 | 0.00 | 89 | 1008.8 |
| 20260506083510 | 61 | 69 | 3.0 | 8.0 | 0.00 | 0.01 | 0.00 | 90 | 1008.9 |
| 20260506083009 | 61 | 183 | 2.0 | 7.0 | 0.00 | 0.01 | 0.00 | 90 | 1008.9 |
| 20260506082509 | 61 | 250 | 2.0 | 9.0 | 0.00 | 0.01 | 0.00 | 89 | 1008.9 |
| 20260506082010 | 61 | 134 | 1.0 | 9.0 | 0.00 | 0.01 | 0.00 | 89 | 1008.8 |
| 20260506081508 | 61 | 44 | 1.0 | 6.0 | 0.00 | 0.01 | 0.00 | 89 | 1008.8 |
| 20260506081010 | 62 | 176 | 2.0 | 8.0 | 0.00 | 0.01 | 0.00 | 89 | 1008.9 |
| 20260506080508 | 62 | 208 | 3.0 | 8.0 | 0.00 | 0.01 | 0.00 | 88 | 1008.9 |
| 20260506073504 | 62 | 159 | 2.0 | 7.0 | 0.00 | 0.01 | 0.00 | 86 | 1009.0 |
| 20260506073003 | 62 | 255 | 2.0 | 7.0 | 0.00 | 0.01 | 0.00 | 86 | 1009.1 |
| 20260506072503 | 62 | 261 | 2.0 | 7.0 | 0.00 | 0.01 | 0.00 | 85 | 1009.2 |
| 20260506072002 | 62 | 127 | 0.0 | 9.0 | 0.00 | 0.01 | 0.00 | 85 | 1009.1 |
| 20260506071502 | 62 | 189 | 1.0 | 9.0 | 0.00 | 0.01 | 0.00 | 84 | 1009.2 |
| 20260506071001 | 62 | 219 | 1.0 | 6.0 | 0.00 | 0.01 | 0.00 | 84 | 1009.2 |
| 20260506070501 | 63 | 275 | 3.0 | 6.0 | 0.00 | 0.01 | 0.00 | 84 | 1009.2 |
| 20260506070105 | 63 | 150 | 2.0 | 10.0 | 0.00 | 0.01 | 0.00 | 83 | 1009.2 |
| 20260506062054 | 64 | 273 | 1.0 | 4.0 | 0.00 | 0.01 | 0.00 | 80 | 1009.5 |
| 20260506061554 | 64 | 286 | 2.0 | 4.0 | 0.00 | 0.01 | 0.00 | 80 | 1009.6 |
| 20260506061054 | 64 | 257 | 1.0 | 4.0 | 0.00 | 0.01 | 0.00 | 80 | 1009.6 |
| 20260506060553 | 64 | 155 | 1.0 | 10.0 | 0.00 | 0.01 | 0.00 | 80 | 1009.7 |
| 20260506051048 | 65 | 133 | 3.0 | 9.0 | 0.00 | 0.01 | 0.00 | 77 | 1009.9 |
| 20260506050548 | 65 | 261 | 3.0 | 7.0 | 0.00 | 0.01 | 0.00 | 77 | 1009.9 |
| 20260506045047 | 65 | 182 | 1.0 | 9.0 | 0.00 | 0.01 | 0.00 | 77 | 1010.0 |
| 20260506044546 | 65 | 300 | 1.0 | 9.0 | 0.00 | 0.01 | 0.00 | 77 | 1010.1 |
| 20260506044045 | 65 | 250 | 3.0 | 9.0 | 0.00 | 0.01 | 0.00 | 77 | 1010.2 |
| 20260506043544 | 65 | 148 | 1.0 | 7.0 | 0.00 | 0.01 | 0.00 | 77 | 1010.3 |
| 20260506043046 | 64 | 212 | 2.0 | 7.0 | 0.00 | 0.01 | 0.00 | 77 | 1010.1 |
| 20260506042646 | 65 | 195 | 2.0 | 6.0 | 0.00 | 0.01 | 0.00 | 77 | 1010.0 |
| 20260506042044 | 65 | 200 | 1.0 | 7.0 | 0.00 | 0.01 | 0.00 | 77 | 1010.1 |
| 20260506041542 | 65 | 332 | 1.0 | 7.0 | 0.00 | 0.01 | 0.00 | 76 | 1010.1 |
| 20260506041041 | 65 | 273 | 2.0 | 7.0 | 0.00 | 0.01 | 0.00 | 76 | 1010.1 |
| 20260506040541 | 65 | 293 | 2.0 | 7.0 | 0.00 | 0.01 | 0.00 | 76 | 1010.1 |
| 20260506040041 | 65 | 259 | 2.0 | 6.0 | 0.00 | 0.01 | 0.00 | 76 | 1010.1 |
| 20260506035540 | 65 | 82 | 2.0 | 11.0 | 0.00 | 0.01 | 0.01 | 76 | 1010.1 |
| 20260506035042 | 65 | 159 | 2.0 | 11.0 | 0.00 | 0.01 | 0.01 | 76 | 1010.1 |
| 20260506034557 | 65 | 306 | 3.0 | 8.0 | 0.00 | 0.01 | 0.01 | 76 | 1010.1 |
| 20260506034038 | 65 | 250 | 2.0 | 8.0 | 0.00 | 0.01 | 0.01 | 76 | 1010.1 |
| 20260506033538 | 65 | 105 | 3.0 | 7.0 | 0.00 | 0.01 | 0.01 | 75 | 1010.0 |
| 20260506033038 | 66 | 193 | 1.0 | 8.0 | 0.00 | 0.01 | 0.01 | 75 | 1010.1 |
| 20260506032544 | 66 | 238 | 3.0 | 8.0 | 0.00 | 0.01 | 0.01 | 75 | 1010.0 |
| 20260506032038 | 66 | 175 | 3.0 | 9.0 | 0.00 | 0.01 | 0.01 | 74 | 1010.0 |
| 20260506031539 | 66 | 210 | 2.0 | 9.0 | 0.00 | 0.01 | 0.01 | 74 | 1010.0 |
| 20260506031038 | 66 | 111 | 2.0 | 5.0 | 0.00 | 0.01 | 0.01 | 73 | 1010.0 |
| 20260506030539 | 66 | 115 | 1.0 | 10.0 | 0.00 | 0.01 | 0.01 | 73 | 1010.0 |
| 20260506030041 | 66 | 190 | 1.0 | 10.0 | 0.00 | 0.01 | 0.01 | 72 | 1010.1 |
| 20260506025538 | 66 | 186 | 3.0 | 10.0 | 0.00 | 0.01 | 0.01 | 71 | 1010.0 |
| 20260506025038 | 67 | 305 | 1.0 | 8.0 | 0.00 | 0.01 | 0.01 | 70 | 1010.1 |
| 20260506024556 | 67 | 5 | 1.0 | 5.0 | 0.00 | 0.01 | 0.01 | 69 | 1010.0 |
| 20260506024037 | 67 | 72 | 2.0 | 5.0 | 0.00 | 0.01 | 0.01 | 68 | 1010.0 |
| 20260506023537 | 68 | 186 | 1.0 | 7.0 | 0.00 | 0.01 | 0.01 | 68 | 1010.1 |
| 20260506023037 | 68 | 192 | 3.0 | 9.0 | 0.00 | 0.01 | 0.01 | 67 | 1010.0 |
| 20260506022539 | 68 | 241 | 2.0 | 9.0 | 0.00 | 0.01 | 0.01 | 66 | 1010.0 |
| 20260506022036 | 68 | 159 | 2.0 | 8.0 | 0.00 | 0.01 | 0.01 | 65 | 1010.0 |
| 20260506021537 | 69 | 212 | 3.0 | 8.0 | 0.00 | 0.01 | 0.01 | 64 | 1009.9 |
| 20260506021036 | 69 | 96 | 2.0 | 7.0 | 0.00 | 0.01 | 0.01 | 64 | 1010.0 |
| 20260506020536 | 69 | 87 | 2.0 | 7.0 | 0.00 | 0.01 | 0.01 | 64 | 1010.0 |
| 20260506020036 | 69 | 204 | 2.0 | 7.0 | 0.00 | 0.01 | 0.01 | 63 | 1009.9 |
| 20260506015536 | 69 | 148 | 2.0 | 7.0 | 0.00 | 0.01 | 0.01 | 63 | 1009.9 |
| 20260506015036 | 69 | 319 | 3.0 | 11.0 | 0.00 | 0.01 | 0.01 | 63 | 1009.9 |
| 20260506014536 | 70 | 271 | 2.0 | 11.0 | 0.00 | 0.01 | 0.01 | 62 | 1009.9 |
| 20260506014038 | 70 | 329 | 2.0 | 12.0 | 0.00 | 0.01 | 0.01 | 62 | 1009.8 |
| 20260506013537 | 70 | 114 | 3.0 | 12.0 | 0.00 | 0.01 | 0.01 | 63 | 1009.7 |
| 20260506013044 | 70 | 75 | 2.0 | 9.0 | 0.00 | 0.01 | 0.01 | 62 | 1009.6 |
| 20260506012535 | 70 | 211 | 2.0 | 14.0 | 0.00 | 0.01 | 0.01 | 62 | 1009.6 |
| 20260506012034 | 70 | 63 | 2.0 | 9.0 | 0.00 | 0.01 | 0.01 | 62 | 1009.6 |
| 20260506011535 | 70 | 148 | 2.0 | 7.0 | 0.00 | 0.01 | 0.01 | 62 | 1009.6 |
| 20260506011034 | 70 | 215 | 3.0 | 10.0 | 0.00 | 0.01 | 0.01 | 62 | 1009.4 |
| 20260506010534 | 70 | 168 | 4.0 | 10.0 | 0.00 | 0.01 | 0.01 | 62 | 1009.4 |
| 20260506010034 | 71 | 207 | 3.0 | 9.0 | 0.00 | 0.01 | 0.01 | 62 | 1009.3 |
| 20260506005534 | 71 | 207 | 3.0 | 9.0 | 0.00 | 0.01 | 0.01 | 61 | 1009.2 |
| 20260506005036 | 71 | 136 | 2.0 | 7.0 | 0.00 | 0.01 | 0.01 | 61 | 1009.2 |
| 20260506004534 | 71 | 327 | 2.0 | 9.0 | 0.00 | 0.01 | 0.01 | 61 | 1009.1 |
| 20260506004034 | 71 | 273 | 4.0 | 9.0 | 0.00 | 0.01 | 0.01 | 61 | 1009.1 |
| 20260506003533 | 71 | 203 | 3.0 | 8.0 | 0.00 | 0.01 | 0.01 | 60 | 1009.1 |
| 20260506003035 | 71 | 230 | 2.0 | 6.0 | 0.00 | 0.01 | 0.01 | 59 | 1009.0 |
| 20260506002532 | 71 | 130 | 1.0 | 6.0 | 0.00 | 0.01 | 0.01 | 59 | 1009.0 |
| 20260506002032 | 72 | 134 | 3.0 | 7.0 | 0.00 | 0.01 | 0.01 | 58 | 1008.8 |
| 20260506001537 | 72 | 202 | 1.0 | 9.0 | 0.00 | 0.01 | 0.01 | 57 | 1008.9 |
| 20260506001033 | 72 | 284 | 2.0 | 8.0 | 0.00 | 0.01 | 0.01 | 57 | 1008.9 |
| 20260506000531 | 73 | 245 | 1.0 | 8.0 | 0.00 | 0.01 | 0.01 | 55 | 1008.9 |
| 20260506000033 | 73 | 227 | 2.0 | 8.0 | 0.00 | 0.01 | 0.01 | 54 | 1008.8 |
| 20260505235533 | 73 | 248 | 3.0 | 8.0 | 0.00 | 0.01 | 0.01 | 54 | 1008.7 |
| 20260505235031 | 74 | 238 | 2.0 | 8.0 | 0.00 | 0.01 | 0.01 | 53 | 1008.7 |
| 20260505234631 | 74 | 224 | 3.0 | 14.0 | 0.00 | 0.01 | 0.01 | 53 | 1008.6 |
| 20260505234030 | 74 | 239 | 3.0 | 14.0 | 0.00 | 0.01 | 0.01 | 53 | 1008.7 |
| 20260505233531 | 74 | 242 | 3.0 | 9.0 | 0.00 | 0.01 | 0.01 | 52 | 1008.6 |
| 20260505233029 | 74 | 246 | 4.0 | 10.0 | 0.00 | 0.01 | 0.01 | 52 | 1008.6 |
| 20260505232529 | 74 | 198 | 4.0 | 15.0 | 0.00 | 0.01 | 0.01 | 52 | 1008.6 |
| 20260505232030 | 74 | 182 | 4.0 | 15.0 | 0.00 | 0.01 | 0.01 | 51 | 1008.5 |
| 20260505231532 | 75 | 360 | 4.0 | 10.0 | 0.00 | 0.01 | 0.01 | 51 | 1008.6 |
| 20260505231032 | 75 | 264 | 2.0 | 12.0 | 0.00 | 0.01 | 0.01 | 51 | 1008.6 |
| 20260505230529 | 75 | 223 | 2.0 | 11.0 | 0.00 | 0.01 | 0.01 | 51 | 1008.5 |
| 20260505230048 | 76 | 180 | 5.0 | 12.0 | 0.00 | 0.01 | 0.01 | 50 | 1008.4 |
| 20260505225529 | 76 | 134 | 5.0 | 11.0 | 0.00 | 0.01 | 0.01 | 50 | 1008.3 |
| 20260505225029 | 76 | 262 | 6.0 | 18.0 | 0.00 | 0.01 | 0.01 | 50 | 1008.4 |
| 20260505224529 | 76 | 91 | 7.0 | 18.0 | 0.00 | 0.01 | 0.01 | 49 | 1008.3 |
| 20260505224027 | 76 | 215 | 3.0 | 13.0 | 0.00 | 0.01 | 0.01 | 50 | 1008.2 |
| 20260505223527 | 76 | 46 | 4.0 | 14.0 | 0.00 | 0.01 | 0.01 | 50 | 1008.1 |
| 20260505223029 | 76 | 79 | 3.0 | 14.0 | 0.00 | 0.01 | 0.01 | 49 | 1008.1 |
| 20260505222529 | 76 | 196 | 3.0 | 12.0 | 0.00 | 0.01 | 0.01 | 49 | 1008.1 |
| 20260505222027 | 76 | 178 | 5.0 | 12.0 | 0.00 | 0.01 | 0.01 | 48 | 1008.1 |
| 20260505221533 | 76 | 116 | 3.0 | 17.0 | 0.00 | 0.01 | 0.01 | 48 | 1008.2 |
| 20260505221026 | 77 | 251 | 4.0 | 17.0 | 0.00 | 0.01 | 0.01 | 47 | 1008.2 |
| 20260505220525 | 77 | 360 | 4.0 | 10.0 | 0.00 | 0.01 | 0.01 | 47 | 1008.2 |
| 20260505220025 | 76 | 240 | 3.0 | 14.0 | 0.00 | 0.01 | 0.01 | 47 | 1008.3 |
| 20260505215527 | 76 | 226 | 3.0 | 19.0 | 0.00 | 0.01 | 0.01 | 47 | 1008.2 |
| 20260505215025 | 76 | 214 | 6.0 | 19.0 | 0.00 | 0.01 | 0.01 | 47 | 1008.4 |
| 20260505214526 | 76 | 200 | 5.0 | 18.0 | 0.00 | 0.01 | 0.01 | 47 | 1008.1 |
| 20260505214025 | 76 | 227 | 4.0 | 13.0 | 0.00 | 0.01 | 0.01 | 46 | 1008.1 |
| 20260505213523 | 76 | 237 | 6.0 | 12.0 | 0.00 | 0.01 | 0.01 | 46 | 1008.0 |
| 20260505213026 | 77 | 268 | 4.0 | 13.0 | 0.00 | 0.01 | 0.01 | 47 | 1008.1 |
| 20260505212526 | 77 | 237 | 7.0 | 14.0 | 0.00 | 0.01 | 0.01 | 46 | 1008.0 |
| 20260505212022 | 77 | 263 | 4.0 | 14.0 | 0.00 | 0.01 | 0.01 | 47 | 1008.0 |
| 20260505211522 | 77 | 241 | 6.0 | 14.0 | 0.00 | 0.01 | 0.01 | 46 | 1007.9 |
| 20260505211022 | 78 | 240 | 3.0 | 20.0 | 0.00 | 0.01 | 0.01 | 46 | 1007.8 |
| 20260505210522 | 78 | 116 | 5.0 | 20.0 | 0.00 | 0.01 | 0.01 | 46 | 1007.7 |
| 20260505210022 | 78 | 244 | 6.0 | 16.0 | 0.00 | 0.01 | 0.01 | 45 | 1007.7 |
| 20260505205522 | 78 | 217 | 6.0 | 18.0 | 0.00 | 0.01 | 0.01 | 44 | 1007.6 |
| 20260505205022 | 79 | 238 | 7.0 | 18.0 | 0.00 | 0.01 | 0.01 | 44 | 1007.8 |
| 20260505204521 | 79 | 203 | 6.0 | 14.0 | 0.00 | 0.01 | 0.01 | 44 | 1007.7 |
| 20260505204024 | 79 | 225 | 1.0 | 12.0 | 0.00 | 0.01 | 0.01 | 45 | 1007.8 |
| 20260505203520 | 80 | 229 | 5.0 | 13.0 | 0.00 | 0.01 | 0.01 | 43 | 1007.9 |
| 20260505203025 | 80 | 153 | 5.0 | 18.0 | 0.00 | 0.01 | 0.01 | 42 | 1007.9 |
| 20260505202520 | 80 | 209 | 7.0 | 18.0 | 0.00 | 0.01 | 0.01 | 42 | 1007.9 |
| 20260505202020 | 80 | 233 | 4.0 | 14.0 | 0.00 | 0.01 | 0.01 | 43 | 1007.8 |
| 20260505201519 | 81 | 254 | 6.0 | 14.0 | 0.00 | 0.01 | 0.01 | 44 | 1007.9 |
| 20260505201019 | 80 | 242 | 5.0 | 15.0 | 0.00 | 0.01 | 0.01 | 45 | 1007.9 |
| 20260505200521 | 81 | 173 | 5.0 | 10.0 | 0.00 | 0.01 | 0.01 | 45 | 1007.9 |
| 20260505200030 | 81 | 259 | 4.0 | 10.0 | 0.00 | 0.01 | 0.01 | 44 | 1008.0 |
| 20260505195518 | 80 | 259 | 4.0 | 18.0 | 0.00 | 0.01 | 0.01 | 45 | 1008.0 |
| 20260505195018 | 80 | 223 | 6.0 | 18.0 | 0.00 | 0.01 | 0.01 | 45 | 1007.8 |
| 20260505194518 | 80 | 317 | 7.0 | 19.0 | 0.00 | 0.01 | 0.01 | 44 | 1007.9 |
| 20260505194017 | 81 | 212 | 6.0 | 19.0 | 0.00 | 0.01 | 0.01 | 45 | 1007.9 |
| 20260505193517 | 81 | 210 | 2.0 | 13.0 | 0.00 | 0.01 | 0.01 | 48 | 1008.1 |
| 20260505193016 | 80 | 222 | 5.0 | 11.0 | 0.00 | 0.01 | 0.01 | 47 | 1008.1 |
| 20260505192519 | 80 | 139 | 4.0 | 11.0 | 0.00 | 0.01 | 0.01 | 46 | 1008.0 |
| 20260505192016 | 80 | 175 | 3.0 | 11.0 | 0.00 | 0.01 | 0.01 | 47 | 1008.1 |
| 20260505191515 | 80 | 159 | 5.0 | 12.0 | 0.00 | 0.01 | 0.01 | 47 | 1008.2 |
| 20260505191014 | 80 | 248 | 5.0 | 18.0 | 0.00 | 0.01 | 0.01 | 47 | 1008.4 |
| 20260505190517 | 80 | 240 | 7.0 | 19.0 | 0.00 | 0.01 | 0.01 | 46 | 1008.4 |
| 20260505190014 | 80 | 69 | 8.0 | 20.0 | 0.00 | 0.01 | 0.01 | 43 | 1008.5 |
| 20260505185518 | 80 | 261 | 4.0 | 21.0 | 0.00 | 0.01 | 0.01 | 44 | 1008.5 |
| 20260505185013 | 80 | 200 | 7.0 | 18.0 | 0.00 | 0.01 | 0.01 | 45 | 1008.5 |
| 20260505184518 | 81 | 249 | 7.0 | 12.0 | 0.00 | 0.01 | 0.01 | 47 | 1008.5 |
| 20260505184012 | 81 | 229 | 6.0 | 12.0 | 0.00 | 0.01 | 0.01 | 47 | 1008.6 |
| 20260505183510 | 81 | 186 | 5.0 | 18.0 | 0.00 | 0.01 | 0.01 | 48 | 1008.6 |